Time,TemperatureF,DewpointF,PressureIn,WindDirection,WindDirectionDegrees,WindSpeedMPH,WindSpeedGustMPH,Humidity,HourlyPrecipIn,Conditions,Clouds,dailyrainin,SoftwareType,DateUTC
2013-06-27 00:01:00,61.0,58.0,29.83,SW,233,6.0,-999.0,90,-99.99,,,-99.99,,2013-06-27 04:01:00,
2013-06-27 00:11:00,61.0,59.0,29.83,SW,225,5.0,-999.0,92,-99.99,,,-99.99,,2013-06-27 04:11:00,
2013-06-27 00:33:00,61.0,59.0,29.83,SW,225,5.0,-999.0,92,-99.99,,,-99.99,,2013-06-27 04:33:00,
2013-06-27 00:42:00,61.0,59.0,29.83,SW,225,5.0,-999.0,92,-99.99,,,-99.99,,2013-06-27 04:42:00,
2013-06-27 00:52:00,61.0,59.0,29.81,SSW,210,5.0,-999.0,92,-99.99,,,-99.99,,2013-06-27 04:52:00,
2013-06-27 01:02:00,61.0,59.0,29.81,SSW,210,5.0,-999.0,92,-99.99,,,-99.99,,2013-06-27 05:02:00,
2013-06-27 01:12:00,62.0,60.0,29.80,SSW,205,6.0,-999.0,92,-99.99,,,-99.99,,2013-06-27 05:12:00,
2013-06-27 01:22:00,62.0,60.0,29.80,SSW,205,6.0,-999.0,92,-99.99,,,-99.99,,2013-06-27 05:22:00,
2013-06-27 01:32:00,62.0,59.0,29.80,SW,217,4.0,-999.0,91,-99.99,,,-99.99,,2013-06-27 05:32:00,
2013-06-27 01:42:00,62.0,59.0,29.80,SW,217,4.0,-999.0,91,-99.99,,,-99.99,,2013-06-27 05:42:00,
2013-06-27 01:53:00,61.0,57.0,29.80,SSW,213,4.0,-999.0,88,-99.99,,,-99.99,,2013-06-27 05:53:00,
2013-06-27 02:02:00,61.0,57.0,29.78,SSW,196,5.0,-999.0,88,-99.99,,,-99.99,,2013-06-27 06:02:00,
2013-06-27 02:12:00,61.0,57.0,29.78,SSW,196,5.0,-999.0,88,-99.99,,,-99.99,,2013-06-27 06:12:00,
2013-06-27 02:23:00,62.0,58.0,29.78,SSE,167,6.0,-999.0,87,-99.99,,,-99.99,,2013-06-27 06:23:00,
2013-06-27 02:34:00,62.0,57.0,29.78,South,186,7.0,-999.0,84,-99.99,,,-99.99,,2013-06-27 06:34:00,
2013-06-27 02:43:00,62.0,57.0,29.78,South,186,7.0,-999.0,84,-99.99,,,-99.99,,2013-06-27 06:43:00,
2013-06-27 02:53:00,62.0,56.0,29.77,SSW,198,5.0,-999.0,81,-99.99,,,-99.99,,2013-06-27 06:53:00,
2013-06-27 03:02:00,62.0,56.0,29.77,SSE,161,5.0,-999.0,80,-99.99,,,-99.99,,2013-06-27 07:02:00,
2013-06-27 03:12:00,62.0,56.0,29.77,SSE,161,5.0,-999.0,80,-99.99,,,-99.99,,2013-06-27 07:12:00,
2013-06-27 03:22:00,61.0,54.0,29.75,SSW,207,6.0,-999.0,78,-99.99,,,-99.99,,2013-06-27 07:22:00,
2013-06-27 03:33:00,61.0,54.0,29.75,SW,232,7.0,-999.0,78,-99.99,,,-99.99,,2013-06-27 07:33:00,
2013-06-27 03:42:00,61.0,54.0,29.75,SW,232,7.0,-999.0,78,-99.99,,,-99.99,,2013-06-27 07:42:00,
2013-06-27 03:52:00,61.0,54.0,29.75,SW,222,7.0,-999.0,77,-99.99,,,-99.99,,2013-06-27 07:52:00,
2013-06-27 04:01:00,61.0,54.0,29.74,SSW,208,7.0,-999.0,77,-99.99,,,-99.99,,2013-06-27 08:01:00,
2013-06-27 04:11:00,61.0,54.0,29.74,SSW,208,7.0,-999.0,77,-99.99,,,-99.99,,2013-06-27 08:11:00,
2013-06-27 04:22:00,61.0,53.0,29.73,SW,217,6.0,-999.0,76,-99.99,,,-99.99,,2013-06-27 08:22:00,
2013-06-27 04:34:00,61.0,54.0,29.72,SSW,209,6.0,-999.0,78,-99.99,,,-99.99,,2013-06-27 08:34:00,
2013-06-27 04:43:00,61.0,54.0,29.72,SSW,209,6.0,-999.0,78,-99.99,,,-99.99,,2013-06-27 08:43:00,
2013-06-27 04:52:00,61.0,55.0,29.72,SSW,198,5.0,-999.0,80,-99.99,,,-99.99,,2013-06-27 08:52:00,
2013-06-27 05:02:00,61.0,56.0,29.72,SSE,161,6.0,-999.0,83,-99.99,,,-99.99,,2013-06-27 09:02:00,
2013-06-27 05:11:00,61.0,56.0,29.72,SSE,161,6.0,-999.0,83,-99.99,,,-99.99,,2013-06-27 09:11:00,
2013-06-27 05:22:00,61.0,56.0,29.71,SW,236,5.0,-999.0,83,-99.99,,,-99.99,,2013-06-27 09:22:00,
2013-06-27 05:34:00,61.0,56.0,29.70,SSW,201,5.0,-999.0,84,-99.99,,,-99.99,,2013-06-27 09:34:00,
2013-06-27 05:43:00,61.0,56.0,29.70,SSW,201,5.0,-999.0,84,-99.99,,,-99.99,,2013-06-27 09:43:00,
2013-06-27 05:53:00,61.0,56.0,29.70,WSW,243,5.0,-999.0,83,-99.99,,,-99.99,,2013-06-27 09:53:00,
2013-06-27 06:01:00,61.0,56.0,29.70,South,184,6.0,-999.0,84,-99.99,,,-99.99,,2013-06-27 10:01:00,
2013-06-27 06:11:00,61.0,56.0,29.70,South,184,6.0,-999.0,84,-99.99,,,-99.99,,2013-06-27 10:11:00,
2013-06-27 06:22:00,61.0,57.0,29.70,SSW,201,6.0,-999.0,87,-99.99,,,-99.99,,2013-06-27 10:22:00,
2013-06-27 06:32:00,61.0,57.0,29.70,SSW,201,6.0,-999.0,87,-99.99,,,-99.99,,2013-06-27 10:32:00,
2013-06-27 06:44:00,61.0,57.0,29.70,SSW,211,6.0,-999.0,87,-99.99,,,-99.99,,2013-06-27 10:44:00,
2013-06-27 06:54:00,61.0,57.0,29.70,South,186,7.0,-999.0,88,-99.99,,,-99.99,,2013-06-27 10:54:00,
2013-06-27 07:02:00,61.0,58.0,29.69,South,174,6.0,-999.0,90,-99.99,,,-99.99,,2013-06-27 11:02:00,
2013-06-27 07:12:00,61.0,58.0,29.69,South,174,6.0,-999.0,90,-99.99,,,-99.99,,2013-06-27 11:12:00,
2013-06-27 07:33:00,61.0,59.0,29.69,SSW,203,6.0,-999.0,92,-99.99,,,-99.99,,2013-06-27 11:33:00,
2013-06-27 07:43:00,61.0,59.0,29.68,SSW,196,6.0,-999.0,92,-99.99,,,-99.99,,2013-06-27 11:43:00,
2013-06-27 07:53:00,61.0,59.0,29.68,SSE,150,7.0,-999.0,92,-99.99,,,-99.99,,2013-06-27 11:53:00,
2013-06-27 08:02:00,61.0,59.0,29.68,SSE,150,7.0,-999.0,92,-99.99,,,-99.99,,2013-06-27 12:02:00,
2013-06-27 08:12:00,61.0,59.0,29.68,SSW,209,8.0,-999.0,92,-99.99,,,-99.99,,2013-06-27 12:12:00,
2013-06-27 08:22:00,61.0,58.0,29.68,SW,215,8.0,-999.0,90,-99.99,,,-99.99,,2013-06-27 12:22:00,
2013-06-27 08:34:00,60.0,56.0,29.67,SW,221,8.0,-999.0,88,-99.99,,,-99.99,,2013-06-27 12:34:00,
2013-06-27 08:42:00,60.0,56.0,29.67,SW,221,8.0,-999.0,88,-99.99,,,-99.99,,2013-06-27 12:42:00,
2013-06-27 09:01:00,60.0,54.0,29.67,SSW,202,8.0,-999.0,81,-99.99,,,-99.99,,2013-06-27 13:01:00,
2013-06-27 09:11:00,60.0,54.0,29.67,SSW,202,8.0,-999.0,81,-99.99,,,-99.99,,2013-06-27 13:11:00,
2013-06-27 09:22:00,60.0,54.0,29.68,SSW,207,10.0,-999.0,81,-99.99,,,-99.99,,2013-06-27 13:22:00,
2013-06-27 09:34:00,60.0,54.0,29.68,SSW,207,10.0,-999.0,81,-99.99,,,-99.99,,2013-06-27 13:34:00,
2013-06-27 09:43:00,60.0,54.0,29.68,SSW,213,10.0,-999.0,80,-99.99,,,-99.99,,2013-06-27 13:43:00,
2013-06-27 09:53:00,60.0,54.0,29.68,SSW,213,10.0,-999.0,80,-99.99,,,-99.99,,2013-06-27 13:53:00,
2013-06-27 10:12:00,59.0,52.0,29.67,SW,230,13.0,-999.0,77,-99.99,,,-99.99,,2013-06-27 14:12:00,
2013-06-27 10:43:00,59.0,51.0,29.67,SW,229,13.0,-999.0,74,-99.99,,,-99.99,,2013-06-27 14:43:00,
2013-06-27 10:52:00,58.0,50.0,29.68,WNW,284,13.0,-999.0,74,-99.99,,,-99.99,,2013-06-27 14:52:00,
2013-06-27 11:12:00,58.0,50.0,29.68,WNW,284,13.0,-999.0,74,-99.99,,,-99.99,,2013-06-27 15:12:00,
2013-06-27 11:42:00,58.0,49.0,29.70,WSW,245,10.0,-999.0,72,-99.99,,,-99.99,,2013-06-27 15:42:00,
2013-06-27 11:52:00,58.0,49.0,29.70,WSW,237,10.0,-999.0,72,-99.99,,,-99.99,,2013-06-27 15:52:00,
2013-06-27 12:02:00,58.0,49.0,29.70,WSW,237,10.0,-999.0,72,-99.99,,,-99.99,,2013-06-27 16:02:00,
2013-06-27 12:11:00,58.0,49.0,29.69,West,270,10.0,-999.0,72,-99.99,,,-99.99,,2013-06-27 16:11:00,
2013-06-27 12:23:00,58.0,49.0,29.69,WSW,238,9.0,-999.0,71,-99.99,,,-99.99,,2013-06-27 16:23:00,
2013-06-27 12:43:00,59.0,50.0,29.69,SW,215,11.0,-999.0,71,-99.99,,,-99.99,,2013-06-27 16:43:00,
2013-06-27 12:53:00,59.0,50.0,29.70,WSW,240,9.0,-999.0,71,-99.99,,,-99.99,,2013-06-27 16:53:00,
2013-06-27 13:02:00,59.0,50.0,29.70,SW,225,9.0,-999.0,71,-99.99,,,-99.99,,2013-06-27 17:02:00,
2013-06-27 13:11:00,59.0,50.0,29.70,SW,225,9.0,-999.0,71,-99.99,,,-99.99,,2013-06-27 17:11:00,
2013-06-27 13:33:00,59.0,50.0,29.70,SW,227,10.0,-999.0,71,-99.99,,,-99.99,,2013-06-27 17:33:00,
2013-06-27 13:43:00,59.0,50.0,29.70,SW,227,10.0,-999.0,71,-99.99,,,-99.99,,2013-06-27 17:43:00,
2013-06-27 13:53:00,59.0,50.0,29.70,SW,231,9.0,-999.0,71,-99.99,,,-99.99,,2013-06-27 17:53:00,
2013-06-27 14:12:00,59.0,50.0,29.69,SW,221,9.0,-999.0,71,-99.99,,,-99.99,,2013-06-27 18:12:00,
2013-06-27 14:22:00,59.0,50.0,29.69,SW,219,10.0,-999.0,71,-99.99,,,-99.99,,2013-06-27 18:22:00,
2013-06-27 14:32:00,60.0,51.0,29.69,SW,227,9.0,-999.0,71,-99.99,,,-99.99,,2013-06-27 18:32:00,
2013-06-27 14:44:00,60.0,51.0,29.69,SW,227,9.0,-999.0,71,-99.99,,,-99.99,,2013-06-27 18:44:00,
2013-06-27 14:52:00,60.0,51.0,29.69,SW,235,10.0,-999.0,71,-99.99,,,-99.99,,2013-06-27 18:52:00,
2013-06-27 15:11:00,60.0,51.0,29.69,SW,221,10.0,-999.0,71,-99.99,,,-99.99,,2013-06-27 19:11:00,
2013-06-27 15:42:00,60.0,51.0,29.69,WSW,248,11.0,-999.0,71,-99.99,,,-99.99,,2013-06-27 19:42:00,
2013-06-27 15:53:00,60.0,51.0,29.68,SW,217,12.0,-999.0,71,-99.99,,,-99.99,,2013-06-27 19:53:00,
2013-06-27 16:02:00,60.0,51.0,29.69,WSW,244,11.0,-999.0,71,-99.99,,,-99.99,,2013-06-27 20:02:00,
2013-06-27 16:11:00,60.0,51.0,29.69,WSW,244,11.0,-999.0,71,-99.99,,,-99.99,,2013-06-27 20:11:00,
2013-06-27 16:22:00,60.0,51.0,29.68,SW,233,12.0,-999.0,71,-99.99,,,-99.99,,2013-06-27 20:22:00,
2013-06-27 16:38:00,60.0,50.0,29.68,WSW,244,11.0,-999.0,70,-99.99,,,-99.99,,2013-06-27 20:38:00,
2013-06-27 16:47:00,60.0,50.0,29.68,WSW,244,11.0,-999.0,70,-99.99,,,-99.99,,2013-06-27 20:47:00,
2013-06-27 16:56:00,59.0,49.0,29.67,West,264,13.0,-999.0,70,-99.99,,,-99.99,,2013-06-27 20:56:00,
2013-06-27 17:06:00,59.0,49.0,29.67,West,264,13.0,-999.0,70,-99.99,,,-99.99,,2013-06-27 21:06:00,
2013-06-27 17:15:00,59.0,49.0,29.67,WSW,240,13.0,-999.0,70,-99.99,,,-99.99,,2013-06-27 21:15:00,
2013-06-27 17:47:00,59.0,49.0,29.66,WSW,252,14.0,-999.0,70,-99.99,,,-99.99,,2013-06-27 21:47:00,
2013-06-27 17:56:00,59.0,49.0,29.66,SW,228,12.0,-999.0,70,-99.99,,,-99.99,,2013-06-27 21:56:00,
2013-06-27 18:16:00,59.0,49.0,29.66,WSW,243,11.0,-999.0,70,-99.99,,,-99.99,,2013-06-27 22:16:00,
2013-06-27 18:48:00,59.0,49.0,29.66,SW,230,10.0,-999.0,70,-99.99,,,-99.99,,2013-06-27 22:48:00,
2013-06-27 18:58:00,59.0,50.0,29.65,SW,234,12.0,-999.0,71,-99.99,,,-99.99,,2013-06-27 22:58:00,
2013-06-27 19:35:00,59.0,50.0,29.67,SSW,210,13.0,-999.0,71,-99.99,,,-99.99,,2013-06-27 23:35:00,
2013-06-27 19:45:00,59.0,50.0,29.67,SSW,210,13.0,-999.0,71,-99.99,,,-99.99,,2013-06-27 23:45:00,
2013-06-27 19:59:00,59.0,50.0,29.67,West,261,12.0,-999.0,71,-99.99,,,-99.99,,2013-06-27 23:59:00,
2013-06-27 20:07:00,59.0,50.0,29.68,WSW,244,13.0,-999.0,71,-99.99,,,-99.99,,2013-06-28 00:07:00,
2013-06-27 20:16:00,59.0,50.0,29.68,WSW,244,13.0,-999.0,71,-99.99,,,-99.99,,2013-06-28 00:16:00,
2013-06-27 20:30:00,59.0,50.0,29.68,SW,223,13.0,-999.0,71,-99.99,,,-99.99,,2013-06-28 00:30:00,
2013-06-27 20:45:00,59.0,50.0,29.68,West,265,12.0,-999.0,71,-99.99,,,-99.99,,2013-06-28 00:45:00,
2013-06-27 20:56:00,59.0,50.0,29.68,WSW,240,12.0,-999.0,71,-99.99,,,-99.99,,2013-06-28 00:56:00,
2013-06-27 21:09:00,59.0,50.0,29.69,WSW,256,11.0,-999.0,71,-99.99,,,-99.99,,2013-06-28 01:09:00,
2013-06-27 21:14:00,59.0,50.0,29.69,WSW,256,11.0,-999.0,71,-99.99,,,-99.99,,2013-06-28 01:14:00,
2013-06-27 21:36:00,59.0,50.0,29.69,WSW,243,11.0,-999.0,71,-99.99,,,-99.99,,2013-06-28 01:36:00,
2013-06-27 21:46:00,59.0,50.0,29.68,WSW,250,12.0,-999.0,71,-99.99,,,-99.99,,2013-06-28 01:46:00,
2013-06-27 22:18:00,59.0,50.0,29.68,WSW,244,13.0,-999.0,72,-99.99,,,-99.99,,2013-06-28 02:18:00,
2013-06-27 22:28:00,59.0,50.0,29.69,WSW,257,12.0,-999.0,72,-99.99,,,-99.99,,2013-06-28 02:28:00,
2013-06-27 22:49:00,60.0,51.0,29.70,WSW,244,11.0,-999.0,72,-99.99,,,-99.99,,2013-06-28 02:49:00,
2013-06-27 22:58:00,60.0,51.0,29.69,WSW,254,11.0,-999.0,72,-99.99,,,-99.99,,2013-06-28 02:58:00,
2013-06-27 23:07:00,60.0,51.0,29.69,WSW,254,11.0,-999.0,72,-99.99,,,-99.99,,2013-06-28 03:07:00,
2013-06-27 23:14:00,60.0,51.0,29.69,SW,232,9.0,-999.0,72,-99.99,,,-99.99,,2013-06-28 03:14:00,
2013-06-27 23:28:00,60.0,51.0,29.69,SW,215,11.0,-999.0,72,-99.99,,,-99.99,,2013-06-28 03:28:00,
2013-06-27 23:38:00,60.0,51.0,29.68,West,270,11.0,-999.0,72,-99.99,,,-99.99,,2013-06-28 03:38:00,
2013-06-27 23:45:00,60.0,51.0,29.68,West,270,11.0,-999.0,72,-99.99,,,-99.99,,2013-06-28 03:45:00,
2013-06-27 23:57:00,60.0,51.0,29.68,WSW,240,10.0,-999.0,72,-99.99,,,-99.99,,2013-06-28 03:57:00,